| time (UTC) | temp C | wind direction | speed KPH | gust KPH | rain 1hr cm | rain 24hr cm | rain mn cm | humidity % | barometer mb |
| 20260507225445 | 11 | 13 | 0.0 | 0.0 | 0.00 | 0.43 | 0.43 | 20 | 1011.0 |
| 20260507225015 | 11 | 13 | 0.0 | 0.0 | 0.00 | 0.43 | 0.43 | 22 | 1011.0 |
| 20260507224445 | 11 | 13 | 0.0 | 0.0 | 0.00 | 0.43 | 0.43 | 23 | 1010.9 |
| 20260507223945 | 11 | 13 | 0.0 | 0.0 | 0.00 | 0.43 | 0.43 | 23 | 1011.0 |
| 20260507223445 | 11 | 13 | 0.0 | 0.0 | 0.00 | 0.43 | 0.43 | 23 | 1011.0 |
| 20260507223015 | 11 | 13 | 0.0 | 0.0 | 0.00 | 0.43 | 0.43 | 22 | 1010.9 |
| 20260507222515 | 11 | 13 | 0.0 | 0.0 | 0.00 | 0.43 | 0.43 | 21 | 1011.0 |
| 20260507222015 | 11 | 12 | 0.0 | 0.0 | 0.00 | 0.43 | 0.43 | 23 | 1011.0 |
| 20260507221515 | 11 | 12 | 0.0 | 0.0 | 0.00 | 0.43 | 0.43 | 25 | 1011.0 |
| 20260507220945 | 11 | 12 | 0.0 | 0.0 | 0.00 | 0.43 | 0.43 | 23 | 1010.9 |
| 20260507220515 | 11 | 12 | 0.0 | 0.0 | 0.00 | 0.43 | 0.43 | 20 | 1010.8 |
| 20260507220015 | 11 | 12 | 0.0 | 0.0 | 0.00 | 0.43 | 0.43 | 21 | 1010.8 |
| 20260507215445 | 11 | 12 | 0.0 | 0.0 | 0.00 | 0.43 | 0.43 | 24 | 1010.8 |
| 20260507215015 | 11 | 12 | 0.0 | 0.0 | 0.00 | 0.43 | 0.43 | 24 | 1010.7 |
| 20260507214514 | 11 | 12 | 0.0 | 0.0 | 0.00 | 0.43 | 0.43 | 22 | 1010.7 |
| 20260507214015 | 11 | 12 | 0.0 | 0.0 | 0.00 | 0.43 | 0.43 | 21 | 1010.9 |
| 20260507213515 | 11 | 12 | 0.0 | 0.0 | 0.00 | 0.43 | 0.43 | 22 | 1011.0 |
| 20260507213014 | 11 | 12 | 0.0 | 0.0 | 0.00 | 0.43 | 0.43 | 25 | 1011.0 |
| 20260507212515 | 11 | 12 | 0.0 | 0.0 | 0.00 | 0.43 | 0.43 | 27 | 1011.0 |
| 20260507211945 | 11 | 12 | 0.0 | 0.0 | 0.00 | 0.43 | 0.43 | 29 | 1011.0 |
| 20260507211515 | 11 | 12 | 0.0 | 0.0 | 0.00 | 0.43 | 0.43 | 31 | 1010.7 |
| 20260507210944 | 11 | 11 | 0.0 | 0.0 | 0.00 | 0.43 | 0.43 | 28 | 1010.7 |
| 20260507210514 | 11 | 5 | 0.0 | 0.0 | 0.00 | 0.43 | 0.43 | 26 | 1010.7 |
| 20260507210014 | 11 | 5 | 0.0 | 0.0 | 0.00 | 0.43 | 0.43 | 26 | 1010.9 |
| 20260507205515 | 11 | 5 | 0.0 | 0.0 | 0.00 | 0.43 | 0.43 | 22 | 1010.9 |
| 20260507205015 | 11 | 5 | 0.0 | 0.0 | 0.00 | 0.43 | 0.43 | 19 | 1010.8 |
| 20260507204514 | 11 | 5 | 0.0 | 0.0 | 0.00 | 0.43 | 0.43 | 18 | 1011.0 |
| 20260507204014 | 11 | 5 | 0.0 | 0.0 | 0.00 | 0.43 | 0.43 | 17 | 1010.9 |
| 20260507203514 | 11 | 5 | 0.0 | 0.0 | 0.00 | 0.43 | 0.43 | 19 | 1010.8 |
| 20260507203014 | 11 | 5 | 0.0 | 0.0 | 0.00 | 0.43 | 0.43 | 16 | 1010.8 |
| 20260507202514 | 11 | 360 | 0.0 | 0.0 | 0.00 | 0.43 | 0.43 | 17 | 1010.9 |
| 20260507202014 | 11 | 360 | 0.0 | 0.0 | 0.00 | 0.43 | 0.43 | 17 | 1011.1 |
| 20260507201514 | 11 | 360 | 0.0 | 0.0 | 0.00 | 0.43 | 0.43 | 16 | 1011.3 |
| 20260507201014 | 11 | 360 | 0.0 | 0.0 | 0.00 | 0.43 | 0.43 | 19 | 1011.4 |
| 20260507200514 | 11 | 360 | 0.0 | 0.0 | 0.00 | 0.43 | 0.43 | 20 | 1011.5 |
| 20260507200014 | 11 | 5 | 0.0 | 0.0 | 0.00 | 0.43 | 0.43 | 19 | 1011.2 |
| 20260507195444 | 12 | 9 | 0.0 | 0.0 | 0.00 | 0.43 | 0.43 | 15 | 1011.1 |
| 20260507195014 | 12 | 360 | 0.0 | 0.0 | 0.00 | 0.43 | 0.43 | 15 | 1011.1 |
| 20260507194514 | 11 | 360 | 0.0 | 0.0 | 0.00 | 0.43 | 0.43 | 16 | 1011.0 |
| 20260507193944 | 12 | 360 | 0.0 | 0.0 | 0.00 | 0.43 | 0.43 | 15 | 1011.2 |
| 20260507193514 | 12 | 195 | 0.0 | 0.0 | 0.00 | 0.43 | 0.43 | 16 | 1011.3 |
| 20260507193014 | 12 | 195 | 0.0 | 3.2 | 0.00 | 0.43 | 0.43 | 13 | 1011.3 |
| 20260507192514 | 12 | 16 | 0.0 | 9.7 | 0.00 | 0.43 | 0.43 | 15 | 1011.2 |
| 20260507192014 | 12 | 15 | 0.0 | 9.7 | 0.00 | 0.43 | 0.43 | 14 | 1011.1 |
| 20260507191514 | 12 | 9 | 0.0 | 3.2 | 0.00 | 0.43 | 0.43 | 13 | 1011.0 |
| 20260507190944 | 12 | 196 | 0.0 | 25.7 | 0.03 | 0.43 | 0.43 | 13 | 1011.0 |
| 20260507190514 | 12 | 182 | 0.0 | 25.7 | 0.03 | 0.43 | 0.43 | 13 | 1011.3 |
| 20260507190014 | 12 | 21 | 0.0 | 22.5 | 0.05 | 0.43 | 0.43 | 9 | 1011.0 |
| 20260507185514 | 12 | 12 | 0.0 | 22.5 | 0.05 | 0.43 | 0.43 | 7 | 1010.9 |
| 20260507185013 | 12 | 15 | 0.0 | 29.0 | 0.05 | 0.43 | 0.43 | 8 | 1010.9 |
| 20260507184514 | 12 | 24 | 0.0 | 29.0 | 0.05 | 0.43 | 0.43 | 6 | 1011.1 |
| 20260507184014 | 12 | 24 | 0.0 | 38.6 | 0.05 | 0.43 | 0.43 | 3 | 1011.2 |
| 20260507183514 | 11 | 19 | 6.4 | 38.6 | 0.05 | 0.43 | 0.43 | 4 | 1011.2 |
| 20260507183014 | 11 | 30 | 4.8 | 35.4 | 0.05 | 0.43 | 0.43 | 4 | 1011.3 |
| 20260507182443 | 11 | 19 | 0.0 | 29.0 | 0.05 | 0.43 | 0.43 | 3 | 1011.3 |
| 20260507181944 | 11 | 27 | 4.8 | 29.0 | 0.05 | 0.43 | 0.43 | 3 | 1011.3 |
| 20260507181514 | 11 | 11 | 8.0 | 41.8 | 0.08 | 0.43 | 0.43 | 5 | 1011.5 |
| 20260507181013 | 11 | 20 | 12.9 | 41.8 | 0.05 | 0.41 | 0.41 | 5 | 1011.2 |
| 20260507180513 | 11 | 34 | 9.7 | 38.6 | 0.05 | 0.41 | 0.41 | 3 | 1011.2 |
| 20260507180013 | 11 | 27 | 12.9 | 38.6 | 0.03 | 0.38 | 0.38 | 3 | 1011.4 |
| 20260507175513 | 11 | 23 | 0.0 | 25.7 | 0.05 | 0.38 | 0.38 | 4 | 1011.5 |
| 20260507175013 | 11 | 19 | 0.0 | 35.4 | 0.05 | 0.38 | 0.38 | 5 | 1011.4 |
| 20260507174513 | 11 | 30 | 4.8 | 35.4 | 0.05 | 0.38 | 0.38 | 6 | 1011.6 |
| 20260507174013 | 11 | 18 | 0.0 | 29.0 | 0.05 | 0.38 | 0.38 | 4 | 1011.5 |
| 20260507173514 | 11 | 24 | 0.0 | 29.0 | 0.05 | 0.38 | 0.38 | 5 | 1011.4 |
| 20260507173014 | 11 | 14 | 11.3 | 25.7 | 0.05 | 0.38 | 0.38 | 5 | 1011.3 |
| 20260507172514 | 11 | 360 | 1.6 | 29.0 | 0.05 | 0.38 | 0.38 | 4 | 1011.4 |
| 20260507171943 | 11 | 21 | 0.0 | 29.0 | 0.05 | 0.38 | 0.38 | 6 | 1011.4 |
| 20260507171513 | 11 | 25 | 0.0 | 25.7 | 0.03 | 0.36 | 0.36 | 7 | 1011.5 |
| 20260507171013 | 11 | 17 | 0.0 | 41.8 | 0.05 | 0.36 | 0.36 | 9 | 1011.7 |
| 20260507170513 | 12 | 30 | 8.0 | 41.8 | 0.08 | 0.36 | 0.36 | 7 | 1011.5 |
| 20260507170014 | 12 | 34 | 0.0 | 16.1 | 0.08 | 0.36 | 0.36 | 4 | 1011.7 |
| 20260507165514 | 12 | 34 | 0.0 | 19.3 | 0.05 | 0.33 | 0.33 | 5 | 1011.4 |
| 20260507165013 | 12 | 17 | 0.0 | 19.3 | 0.05 | 0.33 | 0.33 | 7 | 1011.4 |
| 20260507164513 | 12 | 26 | 0.0 | 19.3 | 0.05 | 0.33 | 0.33 | 7 | 1011.5 |
| 20260507164013 | 12 | 23 | 0.0 | 25.7 | 0.05 | 0.33 | 0.33 | 7 | 1011.5 |
| 20260507163514 | 12 | 27 | 0.0 | 25.7 | 0.05 | 0.33 | 0.33 | 8 | 1011.4 |
| 20260507163013 | 12 | 17 | 8.0 | 25.7 | 0.05 | 0.33 | 0.33 | 8 | 1011.5 |
| 20260507162513 | 12 | 20 | 6.4 | 35.4 | 0.05 | 0.33 | 0.33 | 8 | 1011.8 |
| 20260507162013 | 12 | 24 | 6.4 | 35.4 | 0.05 | 0.33 | 0.33 | 7 | 1011.7 |
| 20260507161513 | 12 | 27 | 0.0 | 0.0 | 0.05 | 0.33 | 0.33 | 7 | 1011.9 |
| 20260507161013 | 12 | 21 | 0.0 | 0.0 | 0.03 | 0.33 | 0.30 | 8 | 1012.0 |
| 20260507160513 | 12 | 16 | 0.0 | 0.0 | 0.00 | 0.30 | 0.28 | 9 | 1012.1 |
| 20260507160013 | 12 | 15 | 0.0 | 9.7 | 0.00 | 0.30 | 0.28 | 10 | 1012.2 |
| 20260507155513 | 12 | 12 | 0.0 | 19.3 | 0.00 | 0.36 | 0.28 | 10 | 1011.9 |
| 20260507154943 | 12 | 11 | 0.0 | 25.7 | 0.00 | 0.36 | 0.28 | 8 | 1011.6 |
| 20260507154513 | 12 | 24 | 3.2 | 25.7 | 0.00 | 0.36 | 0.28 | 8 | 1011.6 |
| 20260507154013 | 12 | 22 | 0.0 | 25.7 | 0.00 | 0.36 | 0.28 | 7 | 1011.5 |
| 20260507153513 | 12 | 22 | 0.0 | 19.3 | 0.00 | 0.36 | 0.28 | 6 | 1011.7 |
| 20260507153013 | 12 | 17 | 0.0 | 22.5 | 0.00 | 0.36 | 0.28 | 6 | 1011.9 |
| 20260507152513 | 12 | 23 | 0.0 | 22.5 | 0.00 | 0.38 | 0.28 | 6 | 1011.6 |
| 20260507152013 | 12 | 15 | 0.0 | 0.0 | 0.00 | 0.38 | 0.28 | 5 | 1011.8 |
| 20260507151513 | 12 | 12 | 0.0 | 0.0 | 0.00 | 0.38 | 0.28 | 5 | 1011.7 |
| 20260507151013 | 12 | 13 | 0.0 | 9.7 | 0.00 | 0.38 | 0.28 | 5 | 1011.6 |
| 20260507150513 | 12 | 13 | 0.0 | 19.3 | 0.00 | 0.38 | 0.28 | 6 | 1011.6 |
| 20260507150013 | 12 | 19 | 0.0 | 19.3 | 0.00 | 0.38 | 0.28 | 6 | 1011.5 |
| 20260507145513 | 12 | 19 | 0.0 | 16.1 | 0.00 | 0.38 | 0.28 | 5 | 1011.6 |
| 20260507144943 | 12 | 20 | 0.0 | 22.5 | 0.00 | 0.38 | 0.28 | 5 | 1011.6 |
| 20260507144513 | 12 | 21 | 0.0 | 22.5 | 0.00 | 0.38 | 0.28 | 5 | 1011.5 |
| 20260507144013 | 12 | 11 | 0.0 | 3.2 | 0.00 | 0.38 | 0.28 | 4 | 1011.8 |
| 20260507143513 | 12 | 21 | 0.0 | 25.7 | 0.00 | 0.38 | 0.28 | 4 | 1011.6 |
| 20260507143012 | 12 | 5 | 1.6 | 25.7 | 0.00 | 0.38 | 0.28 | 3 | 1011.5 |
| 20260507142512 | 12 | 28 | 0.0 | 0.0 | 0.00 | 0.38 | 0.28 | 2 | 1011.6 |
| 20260507142013 | 12 | 28 | 0.0 | 6.4 | 0.00 | 0.38 | 0.28 | 2 | 1011.2 |
| 20260507141513 | 12 | 11 | 0.0 | 25.7 | 0.00 | 0.38 | 0.28 | 2 | 1011.3 |
| 20260507141012 | 12 | 17 | 0.0 | 25.7 | 0.00 | 0.38 | 0.28 | 4 | 1010.8 |
| 20260507140513 | 12 | 17 | 8.0 | 25.7 | 0.00 | 0.38 | 0.28 | 4 | 1011.2 |
| 20260507140013 | 12 | 12 | 0.0 | 19.3 | 0.00 | 0.38 | 0.28 | 4 | 1011.5 |
| 20260507135513 | 12 | 24 | 9.7 | 19.3 | 0.00 | 0.38 | 0.28 | 4 | 1011.8 |
| 20260507135012 | 12 | 26 | 0.0 | 19.3 | 0.00 | 0.38 | 0.28 | 4 | 1012.0 |
| 20260507134513 | 12 | 28 | 0.0 | 19.3 | 0.00 | 0.38 | 0.28 | 4 | 1012.1 |
| 20260507134012 | 12 | 25 | 0.0 | 6.4 | 0.00 | 0.38 | 0.28 | 2 | 1012.0 |
| 20260507133513 | 12 | 21 | 0.0 | 0.0 | 0.00 | 0.38 | 0.28 | 2 | 1012.0 |
| 20260507133013 | 12 | 22 | 0.0 | 0.0 | 0.00 | 0.38 | 0.28 | 1 | 1011.7 |
| 20260507132512 | 12 | 22 | 0.0 | 0.0 | 0.00 | 0.38 | 0.28 | 1 | 1011.7 |
| 20260507131942 | 12 | 21 | 0.0 | 0.0 | 0.00 | 0.38 | 0.28 | 1 | 1011.7 |
| 20260507131512 | 12 | 21 | 0.0 | 25.7 | 0.00 | 0.38 | 0.28 | 1 | 1011.5 |
| 20260507130942 | 12 | 17 | 0.0 | 25.7 | 0.00 | 0.38 | 0.28 | 1 | 1011.5 |
| 20260507130512 | 12 | 26 | 9.7 | 19.3 | 0.00 | 0.38 | 0.28 | 1 | 1011.3 |
| 20260507130012 | 12 | 17 | 6.4 | 12.9 | 0.00 | 0.38 | 0.28 | 1 | 1011.3 |
| 20260507125512 | 12 | 28 | 0.0 | 0.0 | 0.00 | 0.38 | 0.28 | 100 | 1011.4 |
| 20260507125012 | 12 | 28 | 0.0 | 0.0 | 0.00 | 0.38 | 0.28 | 1 | 1011.5 |
| 20260507124512 | 12 | 28 | 0.0 | 16.1 | 0.03 | 0.38 | 0.28 | 1 | 1011.7 |
| 20260507124012 | 12 | 24 | 0.0 | 16.1 | 0.03 | 0.38 | 0.28 | 1 | 1011.6 |
| 20260507123512 | 12 | 27 | 0.0 | 22.5 | 0.03 | 0.38 | 0.28 | 2 | 1011.6 |
| 20260507123012 | 12 | 17 | 0.0 | 22.5 | 0.03 | 0.38 | 0.28 | 2 | 1011.6 |
| 20260507122442 | 12 | 29 | 0.0 | 22.5 | 0.03 | 0.38 | 0.28 | 2 | 1011.5 |
| 20260507122011 | 13 | 15 | 11.3 | 32.2 | 0.03 | 0.38 | 0.28 | 1 | 1011.4 |
| 20260507121512 | 13 | 13 | 0.0 | 32.2 | 0.03 | 0.38 | 0.28 | 2 | 1011.2 |
| 20260507121012 | 13 | 17 | 6.4 | 29.0 | 0.03 | 0.38 | 0.28 | 1 | 1011.3 |
| 20260507120512 | 13 | 19 | 0.0 | 29.0 | 0.03 | 0.38 | 0.28 | 100 | 1011.4 |
| 20260507120012 | 14 | 22 | 0.0 | 29.0 | 0.03 | 0.38 | 0.28 | 100 | 1011.1 |
| 20260507115512 | 15 | 26 | 1.6 | 29.0 | 0.03 | 0.38 | 0.28 | 100 | 1010.9 |
| 20260507114942 | 15 | 5 | 0.0 | 29.0 | 0.03 | 0.38 | 0.28 | 100 | 1011.2 |
| 20260507114442 | 17 | 22 | 4.8 | 35.4 | 0.03 | 0.36 | 0.25 | 100 | 1011.1 |
| 20260507114012 | 17 | 32 | 9.7 | 35.4 | 0.03 | 0.36 | 0.25 | 100 | 1011.1 |
| 20260507113512 | 17 | 118 | 0.0 | 0.0 | 0.03 | 0.36 | 0.25 | 100 | 1010.9 |
| 20260507113012 | 17 | 118 | 0.0 | 0.0 | 0.03 | 0.36 | 0.25 | 100 | 1010.9 |
| 20260507112441 | 17 | 118 | 0.0 | 0.0 | 0.03 | 0.36 | 0.25 | 100 | 1010.8 |
| 20260507112011 | 17 | 118 | 0.0 | 0.0 | 0.03 | 0.36 | 0.25 | 100 | 1010.4 |
| 20260507111512 | 17 | 117 | 0.0 | 0.0 | 0.03 | 0.36 | 0.25 | 100 | 1010.6 |
| 20260507110942 | 17 | 117 | 0.0 | 0.0 | 0.05 | 0.36 | 0.25 | 100 | 1010.4 |
| 20260507110512 | 17 | 117 | 0.0 | 0.0 | 0.05 | 0.36 | 0.25 | 100 | 1010.4 |
| 20260507110012 | 17 | 117 | 0.0 | 0.0 | 0.05 | 0.36 | 0.25 | 100 | 1010.5 |
| 20260507105512 | 17 | 118 | 0.0 | 0.0 | 0.05 | 0.36 | 0.25 | 100 | 1010.4 |
| 20260507105012 | 17 | 118 | 0.0 | 0.0 | 0.05 | 0.36 | 0.25 | 100 | 1010.4 |
| 20260507104512 | 17 | 118 | 0.0 | 0.0 | 0.03 | 0.33 | 0.23 | 100 | 1010.3 |
| 20260507104012 | 17 | 117 | 0.0 | 0.0 | 0.05 | 0.33 | 0.23 | 100 | 1010.3 |
| 20260507103512 | 17 | 117 | 0.0 | 0.0 | 0.05 | 0.33 | 0.23 | 100 | 1010.4 |
| 20260507103012 | 17 | 118 | 0.0 | 0.0 | 0.05 | 0.33 | 0.23 | 100 | 1010.6 |
| 20260507102511 | 17 | 117 | 0.0 | 0.0 | 0.05 | 0.33 | 0.23 | 100 | 1010.5 |
| 20260507102012 | 17 | 118 | 0.0 | 0.0 | 0.05 | 0.33 | 0.23 | 100 | 1010.1 |
| 20260507101512 | 17 | 118 | 0.0 | 0.0 | 0.08 | 0.33 | 0.23 | 100 | 1010.2 |
| 20260507101011 | 17 | 117 | 0.0 | 0.0 | 0.05 | 0.30 | 0.20 | 100 | 1010.2 |
| 20260507100511 | 17 | 118 | 0.0 | 0.0 | 0.05 | 0.30 | 0.20 | 100 | 1010.3 |
| 20260507100011 | 17 | 117 | 0.0 | 0.0 | 0.05 | 0.30 | 0.20 | 100 | 1010.4 |
| 20260507095511 | 17 | 117 | 0.0 | 0.0 | 0.05 | 0.30 | 0.20 | 100 | 1010.7 |
| 20260507095011 | 17 | 118 | 0.0 | 0.0 | 0.05 | 0.30 | 0.20 | 100 | 1010.8 |
| 20260507094511 | 17 | 117 | 0.0 | 0.0 | 0.05 | 0.30 | 0.20 | 100 | 1010.7 |
| 20260507094012 | 17 | 117 | 0.0 | 0.0 | 0.03 | 0.28 | 0.18 | 100 | 1010.5 |
| 20260507093512 | 18 | 117 | 0.0 | 0.0 | 0.03 | 0.28 | 0.18 | 100 | 1010.5 |
| 20260507093011 | 18 | 117 | 0.0 | 0.0 | 0.03 | 0.28 | 0.18 | 100 | 1010.5 |
| 20260507092511 | 18 | 117 | 0.0 | 0.0 | 0.03 | 0.28 | 0.18 | 100 | 1010.5 |
| 20260507092011 | 18 | 117 | 0.0 | 0.0 | 0.03 | 0.28 | 0.18 | 100 | 1010.5 |
| 20260507091511 | 18 | 117 | 0.0 | 0.0 | 0.00 | 0.25 | 0.15 | 100 | 1010.7 |
| 20260507091011 | 18 | 117 | 0.0 | 0.0 | 0.00 | 0.25 | 0.15 | 100 | 1010.7 |
| 20260507090511 | 18 | 117 | 0.0 | 0.0 | 0.00 | 0.25 | 0.15 | 100 | 1010.6 |
| 20260507090011 | 18 | 117 | 0.0 | 0.0 | 0.00 | 0.25 | 0.15 | 100 | 1010.4 |
| 20260507085511 | 18 | 117 | 0.0 | 0.0 | 0.00 | 0.25 | 0.15 | 100 | 1010.6 |
| 20260507085011 | 18 | 117 | 0.0 | 0.0 | 0.00 | 0.25 | 0.15 | 100 | 1010.6 |
| 20260507084511 | 18 | 117 | 0.0 | 0.0 | 0.00 | 0.25 | 0.15 | 100 | 1010.6 |
| 20260507084011 | 18 | 117 | 0.0 | 0.0 | 0.00 | 0.25 | 0.15 | 100 | 1010.4 |
| 20260507083511 | 18 | 117 | 0.0 | 0.0 | 0.00 | 0.25 | 0.15 | 100 | 1010.2 |
| 20260507083011 | 18 | 117 | 0.0 | 0.0 | 0.00 | 0.25 | 0.15 | 100 | 1010.1 |
| 20260507082511 | 18 | 117 | 0.0 | 0.0 | 0.00 | 0.25 | 0.15 | 100 | 1010.0 |
| 20260507082011 | 18 | 117 | 0.0 | 0.0 | 0.00 | 0.25 | 0.15 | 100 | 1010.0 |
| 20260507081511 | 18 | 117 | 0.0 | 0.0 | 0.00 | 0.25 | 0.15 | 100 | 1010.0 |
| 20260507081011 | 18 | 117 | 0.0 | 0.0 | 0.00 | 0.25 | 0.15 | 100 | 1010.1 |
| 20260507080511 | 18 | 117 | 0.0 | 0.0 | 0.00 | 0.25 | 0.15 | 100 | 1010.0 |
| 20260507080011 | 18 | 117 | 0.0 | 0.0 | 0.00 | 0.25 | 0.15 | 100 | 1009.9 |
| 20260507075511 | 18 | 117 | 0.0 | 0.0 | 0.00 | 0.25 | 0.15 | 100 | 1009.7 |
| 20260507075011 | 18 | 117 | 0.0 | 0.0 | 0.00 | 0.25 | 0.15 | 100 | 1009.9 |
| 20260507074511 | 18 | 117 | 0.0 | 0.0 | 0.00 | 0.25 | 0.15 | 100 | 1009.8 |
| 20260507074011 | 18 | 117 | 0.0 | 0.0 | 0.00 | 0.25 | 0.15 | 100 | 1009.8 |
| 20260507073511 | 18 | 117 | 0.0 | 0.0 | 0.00 | 0.25 | 0.15 | 100 | 1010.0 |
| 20260507073012 | 18 | 117 | 0.0 | 0.0 | 0.00 | 0.25 | 0.15 | 100 | 1010.2 |
| 20260507072511 | 18 | 117 | 0.0 | 0.0 | 0.00 | 0.25 | 0.15 | 100 | 1010.1 |
| 20260507072011 | 18 | 117 | 0.0 | 0.0 | 0.00 | 0.25 | 0.15 | 100 | 1009.9 |
| 20260507071511 | 18 | 117 | 0.0 | 0.0 | 0.00 | 0.25 | 0.15 | 100 | 1009.7 |
| 20260507071011 | 18 | 117 | 0.0 | 0.0 | 0.00 | 0.25 | 0.15 | 100 | 1010.0 |
| 20260507070511 | 18 | 117 | 0.0 | 0.0 | 0.00 | 0.25 | 0.15 | 100 | 1010.2 |
| 20260507070013 | 18 | 117 | 0.0 | 0.0 | 0.00 | 0.25 | 0.15 | 100 | 1010.2 |
| 20260507065510 | 18 | 119 | 0.0 | 3.2 | 0.00 | 0.25 | 0.15 | 100 | 1010.4 |
| 20260507065010 | 18 | 119 | 0.0 | 3.2 | 0.00 | 0.25 | 0.15 | 100 | 1010.5 |
| 20260507064510 | 18 | 120 | 0.0 | 0.0 | 0.00 | 0.25 | 0.15 | 100 | 1010.6 |
| 20260507064010 | 18 | 107 | 0.0 | 0.0 | 0.00 | 0.25 | 0.15 | 100 | 1010.8 |
| 20260507063510 | 18 | 92 | 0.0 | 0.0 | 0.00 | 0.25 | 0.15 | 100 | 1010.8 |
| 20260507063010 | 18 | 90 | 0.0 | 0.0 | 0.00 | 0.25 | 0.15 | 100 | 1010.7 |
| 20260507062511 | 18 | 90 | 0.0 | 0.0 | 0.00 | 0.25 | 0.15 | 100 | 1010.6 |
| 20260507062010 | 18 | 90 | 0.0 | 0.0 | 0.00 | 0.25 | 0.15 | 100 | 1010.7 |
| 20260507061510 | 18 | 90 | 0.0 | 0.0 | 0.00 | 0.25 | 0.15 | 100 | 1010.6 |
| 20260507061011 | 18 | 90 | 0.0 | 0.0 | 0.00 | 0.25 | 0.15 | 100 | 1010.4 |
| 20260507060511 | 18 | 90 | 0.0 | 0.0 | 0.03 | 0.25 | 0.15 | 100 | 1010.7 |
| 20260507060010 | 18 | 89 | 0.0 | 0.0 | 0.03 | 0.25 | 0.15 | 100 | 1010.9 |
| 20260507055510 | 18 | 115 | 0.0 | 0.0 | 0.05 | 0.25 | 0.15 | 100 | 1011.1 |
| 20260507055010 | 18 | 115 | 0.0 | 0.0 | 0.08 | 0.25 | 0.15 | 100 | 1011.1 |
| 20260507054510 | 18 | 115 | 0.0 | 0.0 | 0.13 | 0.25 | 0.15 | 100 | 1011.2 |
| 20260507054011 | 18 | 115 | 0.0 | 0.0 | 0.13 | 0.25 | 0.15 | 100 | 1011.0 |
| 20260507053511 | 18 | 115 | 0.0 | 0.0 | 0.13 | 0.25 | 0.15 | 100 | 1011.0 |
| 20260507053010 | 18 | 115 | 0.0 | 0.0 | 0.15 | 0.25 | 0.15 | 100 | 1011.0 |
| 20260507052510 | 18 | 115 | 0.0 | 0.0 | 0.15 | 0.25 | 0.15 | 100 | 1011.1 |
| 20260507052010 | 18 | 115 | 0.0 | 0.0 | 0.15 | 0.25 | 0.15 | 2 | 1011.1 |
| 20260507051511 | 18 | 115 | 0.0 | 0.0 | 0.15 | 0.25 | 0.15 | 3 | 1011.2 |
| 20260507051011 | 18 | 115 | 0.0 | 0.0 | 0.15 | 0.25 | 0.15 | 4 | 1011.0 |
| 20260507050510 | 18 | 115 | 0.0 | 0.0 | 0.13 | 0.23 | 0.13 | 6 | 1011.3 |
| 20260507050010 | 18 | 115 | 0.0 | 0.0 | 0.13 | 0.23 | 0.13 | 8 | 1010.8 |
| 20260507045510 | 18 | 115 | 0.0 | 0.0 | 0.10 | 0.20 | 0.10 | 10 | 1010.7 |
| 20260507045010 | 18 | 115 | 0.0 | 0.0 | 0.08 | 0.18 | 0.08 | 11 | 1011.4 |
| 20260507044510 | 18 | 117 | 0.0 | 0.0 | 0.03 | 0.13 | 0.03 | 15 | 1011.9 |
| 20260507044010 | 18 | 117 | 0.0 | 0.0 | 0.03 | 0.13 | 0.03 | 19 | 1012.1 |
| 20260507043510 | 19 | 117 | 0.0 | 0.0 | 0.03 | 0.13 | 0.03 | 23 | 1012.2 |
| 20260507043010 | 19 | 132 | 0.0 | 3.2 | 0.00 | 0.10 | 0.00 | 28 | 1012.2 |
| 20260507042510 | 19 | 113 | 0.0 | 3.2 | 0.00 | 0.10 | 0.00 | 32 | 1012.3 |
| 20260507042010 | 19 | 119 | 0.0 | 0.0 | 0.00 | 0.10 | 0.00 | 36 | 1012.2 |
| 20260507041510 | 20 | 119 | 0.0 | 3.2 | 0.00 | 0.10 | 0.00 | 40 | 1012.3 |
| 20260507041010 | 20 | 134 | 0.0 | 3.2 | 0.00 | 0.10 | 0.00 | 43 | 1012.3 |
| 20260507040510 | 20 | 113 | 0.0 | 3.2 | 0.00 | 0.10 | 0.00 | 47 | 1012.2 |
| 20260507040010 | 20 | 121 | 0.0 | 3.2 | 0.00 | 0.10 | 0.00 | 49 | 1012.1 |
| 20260507035510 | 20 | 126 | 0.0 | 0.0 | 0.00 | 0.10 | 0.10 | 50 | 1011.8 |
| 20260507035010 | 20 | 117 | 0.0 | 0.0 | 0.00 | 0.10 | 0.10 | 51 | 1011.6 |
| 20260507034510 | 20 | 103 | 0.0 | 0.0 | 0.00 | 0.10 | 0.10 | 51 | 1011.4 |
| 20260507034010 | 20 | 98 | 0.0 | 0.0 | 0.00 | 0.10 | 0.10 | 53 | 1011.3 |
| 20260507033510 | 20 | 109 | 0.0 | 0.0 | 0.00 | 0.10 | 0.10 | 53 | 1011.3 |
| 20260507033010 | 20 | 111 | 0.0 | 0.0 | 0.00 | 0.10 | 0.10 | 54 | 1011.4 |
| 20260507032509 | 20 | 96 | 0.0 | 0.0 | 0.00 | 0.10 | 0.10 | 55 | 1011.6 |
| 20260507032010 | 20 | 96 | 0.0 | 3.2 | 0.00 | 0.10 | 0.10 | 56 | 1011.4 |
| 20260507031510 | 20 | 101 | 0.0 | 3.2 | 0.00 | 0.10 | 0.10 | 55 | 1011.5 |
| 20260507031010 | 20 | 114 | 0.0 | 0.0 | 0.00 | 0.10 | 0.10 | 54 | 1011.4 |
| 20260507030509 | 20 | 105 | 0.0 | 0.0 | 0.00 | 0.10 | 0.10 | 53 | 1011.4 |
| 20260507030010 | 20 | 101 | 0.0 | 0.0 | 0.00 | 0.10 | 0.10 | 52 | 1011.5 |
| 20260507025509 | 20 | 100 | 0.0 | 0.0 | 0.00 | 0.10 | 0.10 | 52 | 1011.6 |
| 20260507025010 | 20 | 103 | 0.0 | 0.0 | 0.00 | 0.10 | 0.10 | 51 | 1011.5 |
| 20260507024509 | 20 | 110 | 0.0 | 0.0 | 0.00 | 0.10 | 0.10 | 51 | 1011.5 |
| 20260507024010 | 20 | 100 | 0.0 | 0.0 | 0.00 | 0.10 | 0.10 | 50 | 1011.5 |
| 20260507023009 | 20 | 99 | 0.0 | 0.0 | 0.00 | 0.10 | 0.10 | 50 | 1011.2 |
| 20260507022510 | 20 | 98 | 0.0 | 0.0 | 0.00 | 0.10 | 0.10 | 50 | 1011.2 |
| 20260507022010 | 20 | 98 | 0.0 | 0.0 | 0.00 | 0.10 | 0.10 | 49 | 1011.2 |
| 20260507021509 | 20 | 98 | 0.0 | 0.0 | 0.00 | 0.10 | 0.10 | 50 | 1011.0 |
| 20260507021009 | 20 | 98 | 0.0 | 0.0 | 0.00 | 0.10 | 0.10 | 50 | 1011.0 |
| 20260507020509 | 20 | 99 | 0.0 | 0.0 | 0.00 | 0.10 | 0.10 | 50 | 1011.2 |
| 20260507020009 | 20 | 79 | 0.0 | 0.0 | 0.00 | 0.10 | 0.10 | 49 | 1011.1 |
| 20260507015509 | 20 | 79 | 0.0 | 0.0 | 0.00 | 0.10 | 0.10 | 48 | 1011.1 |
| 20260507015009 | 20 | 94 | 0.0 | 0.0 | 0.00 | 0.10 | 0.10 | 48 | 1011.4 |
| 20260507014509 | 19 | 91 | 0.0 | 0.0 | 0.00 | 0.10 | 0.10 | 47 | 1011.7 |
| 20260507014009 | 19 | 95 | 0.0 | 0.0 | 0.00 | 0.10 | 0.10 | 47 | 1011.8 |
| 20260507013509 | 19 | 93 | 0.0 | 0.0 | 0.00 | 0.10 | 0.10 | 46 | 1011.7 |
| 20260507013009 | 19 | 93 | 0.0 | 0.0 | 0.00 | 0.10 | 0.10 | 46 | 1011.9 |
| 20260507012510 | 19 | 92 | 0.0 | 0.0 | 0.00 | 0.10 | 0.10 | 45 | 1011.9 |
| 20260507012009 | 19 | 89 | 0.0 | 0.0 | 0.00 | 0.10 | 0.10 | 45 | 1011.8 |
| 20260507011509 | 19 | 89 | 0.0 | 0.0 | 0.00 | 0.10 | 0.10 | 47 | 1011.6 |
| 20260507011009 | 19 | 89 | 0.0 | 0.0 | 0.00 | 0.10 | 0.10 | 48 | 1011.4 |
| 20260507010509 | 20 | 89 | 0.0 | 0.0 | 0.00 | 0.10 | 0.10 | 48 | 1011.2 |
| 20260507010009 | 20 | 89 | 0.0 | 0.0 | 0.00 | 0.10 | 0.10 | 48 | 1011.2 |
| 20260507005508 | 20 | 89 | 0.0 | 0.0 | 0.00 | 0.10 | 0.10 | 49 | 1011.2 |
| 20260507005009 | 20 | 85 | 0.0 | 0.0 | 0.00 | 0.10 | 0.10 | 50 | 1011.1 |
| 20260507004509 | 20 | 85 | 0.0 | 0.0 | 0.00 | 0.10 | 0.10 | 52 | 1011.2 |
| 20260507004009 | 20 | 85 | 0.0 | 0.0 | 0.00 | 0.10 | 0.10 | 54 | 1011.2 |
| 20260507003509 | 20 | 85 | 0.0 | 0.0 | 0.00 | 0.10 | 0.10 | 55 | 1011.0 |
| 20260507003009 | 20 | 84 | 0.0 | 0.0 | 0.00 | 0.10 | 0.10 | 56 | 1011.1 |
| 20260507002509 | 20 | 84 | 0.0 | 0.0 | 0.00 | 0.10 | 0.10 | 58 | 1011.0 |
| 20260507002009 | 20 | 84 | 0.0 | 0.0 | 0.00 | 0.10 | 0.10 | 58 | 1011.2 |
| 20260507001509 | 20 | 84 | 0.0 | 0.0 | 0.00 | 0.10 | 0.10 | 60 | 1011.3 |
| 20260507001008 | 20 | 84 | 0.0 | 0.0 | 0.00 | 0.10 | 0.10 | 60 | 1011.4 |
| 20260507000509 | 20 | 84 | 0.0 | 0.0 | 0.00 | 0.10 | 0.10 | 61 | 1011.4 |
| 20260507000008 | 21 | 99 | 0.0 | 0.0 | 0.00 | 0.10 | 0.10 | 61 | 1011.4 |
| 20260506235508 | 21 | 98 | 0.0 | 0.0 | 0.00 | 0.10 | 0.10 | 62 | 1011.5 |
| 20260506235008 | 21 | 104 | 0.0 | 0.0 | 0.00 | 0.10 | 0.10 | 62 | 1011.6 |
| 20260506234508 | 21 | 103 | 0.0 | 0.0 | 0.00 | 0.10 | 0.10 | 63 | 1011.7 |
| 20260506234009 | 21 | 98 | 0.0 | 0.0 | 0.00 | 0.10 | 0.10 | 63 | 1011.7 |
| 20260506233508 | 21 | 107 | 0.0 | 0.0 | 0.00 | 0.10 | 0.10 | 63 | 1011.6 |
| 20260506233008 | 21 | 101 | 0.0 | 0.0 | 0.00 | 0.10 | 0.10 | 64 | 1011.6 |
| 20260506232509 | 21 | 97 | 0.0 | 0.0 | 0.00 | 0.10 | 0.10 | 64 | 1011.4 |
| 20260506232009 | 21 | 96 | 0.0 | 0.0 | 0.00 | 0.10 | 0.10 | 65 | 1011.3 |
| 20260506231508 | 21 | 103 | 0.0 | 0.0 | 0.00 | 0.10 | 0.10 | 65 | 1011.3 |
| 20260506231008 | 21 | 104 | 0.0 | 0.0 | 0.00 | 0.10 | 0.10 | 65 | 1011.2 |
| 20260506230508 | 21 | 104 | 0.0 | 0.0 | 0.00 | 0.10 | 0.10 | 65 | 1011.2 |
| 20260506230008 | 21 | 109 | 0.0 | 0.0 | 0.00 | 0.10 | 0.10 | 66 | 1011.3 |
| 20260506225508 | 21 | 112 | 0.0 | 0.0 | 0.00 | 0.10 | 0.10 | 66 | 1011.4 |